| time (UTC) | temp F | wind direction | speed MPH | gust MPH | rain 1hr in | rain 24hr in | rain mn in | humidity % | barometer mb |
| 20260505222953 | 51 | 40 | 7.0 | 14.0 | 0.00 | 0.00 | 0.00 | 86 | 1011.2 |
| 20260505222454 | 51 | 8 | 7.0 | 15.0 | 0.00 | 0.00 | 0.00 | 86 | 1011.2 |
| 20260505221954 | 51 | 49 | 7.0 | 15.0 | 0.00 | 0.00 | 0.00 | 86 | 1011.3 |
| 20260505221454 | 51 | 49 | 7.0 | 14.0 | 0.00 | 0.00 | 0.00 | 86 | 1011.2 |
| 20260505220451 | 52 | 65 | 7.0 | 14.0 | 0.00 | 0.00 | 0.00 | 87 | 1011.3 |
| 20260505215952 | 52 | 39 | 7.0 | 15.0 | 0.00 | 0.00 | 0.00 | 87 | 1011.3 |
| 20260505215452 | 52 | 55 | 8.0 | 16.0 | 0.00 | 0.00 | 0.00 | 86 | 1011.2 |
| 20260505214452 | 52 | 75 | 6.0 | 12.0 | 0.00 | 0.00 | 0.00 | 84 | 1011.2 |
| 20260505213446 | 52 | 67 | 6.0 | 12.0 | 0.00 | 0.00 | 0.00 | 82 | 1011.2 |
| 20260505212946 | 52 | 68 | 6.0 | 12.0 | 0.00 | 0.00 | 0.00 | 80 | 1011.2 |
| 20260505211446 | 52 | 37 | 7.0 | 14.0 | 0.00 | 0.00 | 0.00 | 76 | 1011.3 |
| 20260505210946 | 51 | 49 | 7.0 | 14.0 | 0.00 | 0.00 | 0.00 | 77 | 1011.3 |
| 20260505210439 | 51 | 49 | 6.0 | 14.0 | 0.00 | 0.00 | 0.00 | 78 | 1011.3 |
| 20260505205441 | 51 | 58 | 6.0 | 11.0 | 0.00 | 0.00 | 0.00 | 80 | 1011.2 |
| 20260505204940 | 51 | 74 | 6.0 | 8.0 | 0.00 | 0.00 | 0.00 | 82 | 1011.2 |
| 20260505203528 | 51 | 77 | 6.0 | 12.0 | 0.00 | 0.00 | 0.00 | 83 | 1011.2 |
| 20260505202025 | 51 | 56 | 5.0 | 9.0 | 0.00 | 0.00 | 0.00 | 85 | 1011.1 |
| 20260505201525 | 51 | 56 | 5.0 | 9.0 | 0.00 | 0.00 | 0.00 | 85 | 1011.0 |
| 20260505201024 | 51 | 59 | 5.0 | 9.0 | 0.00 | 0.00 | 0.00 | 85 | 1011.0 |
| 20260505200524 | 51 | 46 | 4.0 | 10.0 | 0.00 | 0.00 | 0.00 | 85 | 1010.9 |
| 20260505200023 | 51 | 49 | 5.0 | 10.0 | 0.00 | 0.00 | 0.00 | 85 | 1010.9 |
| 20260505195522 | 51 | 47 | 5.0 | 9.0 | 0.00 | 0.00 | 0.00 | 84 | 1010.9 |
| 20260505195017 | 51 | 59 | 5.0 | 9.0 | 0.00 | 0.00 | 0.00 | 84 | 1010.8 |
| 20260505194516 | 51 | 74 | 4.0 | 9.0 | 0.00 | 0.00 | 0.00 | 84 | 1010.6 |
| 20260505194017 | 51 | 346 | 5.0 | 10.0 | 0.00 | 0.00 | 0.00 | 84 | 1010.6 |
| 20260505193517 | 52 | 72 | 5.0 | 11.0 | 0.00 | 0.00 | 0.00 | 84 | 1010.6 |
| 20260505193017 | 52 | 69 | 5.0 | 11.0 | 0.00 | 0.00 | 0.00 | 84 | 1010.7 |
| 20260505192517 | 52 | 62 | 6.0 | 10.0 | 0.00 | 0.00 | 0.00 | 83 | 1010.6 |
| 20260505191514 | 52 | 48 | 5.0 | 11.0 | 0.00 | 0.00 | 0.00 | 82 | 1010.5 |
| 20260505191010 | 52 | 56 | 5.0 | 9.0 | 0.00 | 0.00 | 0.00 | 83 | 1010.5 |
| 20260505190508 | 52 | 51 | 5.0 | 10.0 | 0.00 | 0.00 | 0.00 | 82 | 1010.4 |
| 20260505190002 | 53 | 57 | 6.0 | 12.0 | 0.00 | 0.00 | 0.00 | 81 | 1010.4 |
| 20260505185500 | 53 | 94 | 6.0 | 11.0 | 0.00 | 0.00 | 0.00 | 80 | 1010.4 |
| 20260505184954 | 53 | 41 | 5.0 | 10.0 | 0.00 | 0.00 | 0.00 | 81 | 1010.4 |
| 20260505184447 | 53 | 43 | 5.0 | 10.0 | 0.00 | 0.00 | 0.00 | 80 | 1010.4 |
| 20260505183944 | 53 | 34 | 5.0 | 10.0 | 0.00 | 0.00 | 0.00 | 79 | 1010.4 |
| 20260505183440 | 53 | 58 | 5.0 | 9.0 | 0.00 | 0.00 | 0.00 | 79 | 1010.4 |
| 20260505182439 | 54 | 49 | 6.0 | 11.0 | 0.00 | 0.00 | 0.00 | 78 | 1010.4 |
| 20260505181439 | 54 | 49 | 4.0 | 8.0 | 0.00 | 0.00 | 0.00 | 77 | 1010.3 |
| 20260505180938 | 54 | 67 | 4.0 | 8.0 | 0.00 | 0.00 | 0.00 | 77 | 1010.3 |
| 20260505175940 | 54 | 66 | 4.0 | 8.0 | 0.00 | 0.00 | 0.00 | 77 | 1010.4 |
| 20260505175440 | 54 | 60 | 3.0 | 6.0 | 0.00 | 0.00 | 0.00 | 78 | 1010.3 |
| 20260505173934 | 54 | 63 | 5.0 | 9.0 | 0.00 | 0.00 | 0.00 | 78 | 1010.3 |
| 20260505173434 | 54 | 47 | 5.0 | 9.0 | 0.00 | 0.00 | 0.00 | 78 | 1010.3 |
| 20260505172935 | 54 | 46 | 4.0 | 10.0 | 0.00 | 0.00 | 0.00 | 78 | 1010.3 |
| 20260505172436 | 54 | 59 | 5.0 | 10.0 | 0.00 | 0.00 | 0.00 | 78 | 1010.3 |
| 20260505171931 | 54 | 94 | 5.0 | 10.0 | 0.00 | 0.00 | 0.00 | 78 | 1010.2 |
| 20260505170931 | 54 | 41 | 5.0 | 10.0 | 0.00 | 0.00 | 0.00 | 77 | 1010.3 |
| 20260505170431 | 55 | 60 | 5.0 | 9.0 | 0.00 | 0.00 | 0.00 | 77 | 1010.3 |
| 20260505165931 | 55 | 51 | 5.0 | 10.0 | 0.00 | 0.00 | 0.00 | 75 | 1010.3 |
| 20260505165432 | 55 | 41 | 5.0 | 10.0 | 0.00 | 0.00 | 0.00 | 76 | 1010.3 |
| 20260505164926 | 55 | 35 | 5.0 | 10.0 | 0.00 | 0.00 | 0.00 | 75 | 1010.4 |
| 20260505164427 | 55 | 95 | 4.0 | 8.0 | 0.00 | 0.00 | 0.00 | 77 | 1010.4 |
| 20260505163920 | 55 | 60 | 5.0 | 9.0 | 0.00 | 0.00 | 0.00 | 77 | 1010.3 |
| 20260505163420 | 55 | 105 | 5.0 | 10.0 | 0.00 | 0.00 | 0.00 | 77 | 1010.4 |
| 20260505162918 | 55 | 55 | 6.0 | 10.0 | 0.00 | 0.00 | 0.00 | 77 | 1010.4 |
| 20260505161914 | 55 | 57 | 4.0 | 11.0 | 0.00 | 0.00 | 0.00 | 75 | 1010.4 |
| 20260505161415 | 55 | 62 | 5.0 | 10.0 | 0.00 | 0.00 | 0.00 | 77 | 1010.3 |
| 20260505160912 | 55 | 75 | 6.0 | 10.0 | 0.00 | 0.00 | 0.00 | 77 | 1010.3 |
| 20260505151459 | 53 | 59 | 6.0 | 10.0 | 0.00 | 0.00 | 0.00 | 82 | 1010.7 |
| 20260505150958 | 53 | 57 | 5.0 | 10.0 | 0.00 | 0.00 | 0.00 | 82 | 1010.6 |
| 20260505150458 | 53 | 24 | 6.0 | 12.0 | 0.00 | 0.00 | 0.00 | 84 | 1010.7 |
| 20260505140448 | 54 | 40 | 7.0 | 13.0 | 0.00 | 0.00 | 0.00 | 83 | 1011.0 |
| 20260505124935 | 53 | 51 | 6.0 | 14.0 | 0.00 | 0.00 | 0.00 | 82 | 1011.2 |
| 20260505124435 | 53 | 61 | 6.0 | 14.0 | 0.00 | 0.00 | 0.00 | 82 | 1011.2 |
| 20260505122930 | 53 | 1 | 6.0 | 12.0 | 0.00 | 0.00 | 0.00 | 82 | 1011.2 |
| 20260505122430 | 53 | 77 | 6.0 | 13.0 | 0.00 | 0.00 | 0.00 | 82 | 1011.2 |
| 20260505121929 | 53 | 59 | 6.0 | 13.0 | 0.00 | 0.00 | 0.00 | 81 | 1011.2 |
| 20260505121443 | 53 | 51 | 6.0 | 10.0 | 0.00 | 0.00 | 0.00 | 82 | 1011.1 |
| 20260505120424 | 53 | 33 | 6.0 | 13.0 | 0.00 | 0.00 | 0.00 | 82 | 1011.3 |
| 20260505115425 | 53 | 137 | 6.0 | 15.0 | 0.00 | 0.00 | 0.00 | 79 | 1011.2 |
| 20260505114923 | 54 | 63 | 6.0 | 11.0 | 0.00 | 0.00 | 0.00 | 83 | 1011.3 |
| 20260505114424 | 53 | 79 | 6.0 | 11.0 | 0.00 | 0.00 | 0.00 | 82 | 1011.3 |
| 20260505112916 | 53 | 71 | 6.0 | 12.0 | 0.00 | 0.00 | 0.00 | 82 | 1011.4 |
| 20260505112430 | 53 | 63 | 6.0 | 11.0 | 0.00 | 0.00 | 0.00 | 82 | 1011.3 |
| 20260505111430 | 53 | 50 | 6.0 | 12.0 | 0.00 | 0.00 | 0.00 | 82 | 1011.4 |
| 20260505102159 | 53 | 65 | 5.0 | 11.0 | 0.00 | 0.00 | 0.00 | 81 | 1011.7 |
| 20260505101658 | 53 | 358 | 5.0 | 10.0 | 0.00 | 0.00 | 0.00 | 81 | 1011.7 |
| 20260505101159 | 53 | 3 | 6.0 | 11.0 | 0.00 | 0.00 | 0.00 | 81 | 1011.8 |
| 20260505100658 | 53 | 65 | 6.0 | 12.0 | 0.00 | 0.00 | 0.00 | 80 | 1011.8 |
| 20260505100156 | 53 | 54 | 5.0 | 12.0 | 0.00 | 0.00 | 0.00 | 82 | 1011.8 |
| 20260505095656 | 53 | 48 | 5.0 | 13.0 | 0.00 | 0.00 | 0.00 | 81 | 1011.8 |
| 20260505094656 | 53 | 67 | 7.0 | 12.0 | 0.00 | 0.00 | 0.00 | 81 | 1011.8 |
| 20260505093157 | 53 | 359 | 5.0 | 9.0 | 0.00 | 0.00 | 0.00 | 82 | 1012.0 |
| 20260505092651 | 53 | 43 | 5.0 | 11.0 | 0.00 | 0.00 | 0.00 | 82 | 1011.8 |
| 20260505092152 | 53 | 74 | 5.0 | 11.0 | 0.00 | 0.00 | 0.00 | 82 | 1011.9 |
| 20260505091651 | 53 | 76 | 5.0 | 11.0 | 0.00 | 0.00 | 0.00 | 82 | 1011.8 |
| 20260505090652 | 53 | 76 | 4.0 | 10.0 | 0.00 | 0.00 | 0.00 | 83 | 1011.8 |
| 20260505090152 | 53 | 44 | 4.0 | 11.0 | 0.00 | 0.00 | 0.00 | 82 | 1011.8 |
| 20260505085152 | 52 | 48 | 5.0 | 10.0 | 0.00 | 0.00 | 0.00 | 83 | 1011.8 |
| 20260505084652 | 52 | 38 | 5.0 | 11.0 | 0.00 | 0.00 | 0.00 | 84 | 1011.8 |
| 20260505082648 | 52 | 53 | 4.0 | 9.0 | 0.00 | 0.00 | 0.00 | 84 | 1011.8 |
| 20260505082148 | 52 | 64 | 4.0 | 10.0 | 0.00 | 0.00 | 0.00 | 83 | 1011.8 |
| 20260505081647 | 51 | 28 | 4.0 | 10.0 | 0.00 | 0.00 | 0.00 | 83 | 1011.8 |
| 20260505081149 | 51 | 22 | 5.0 | 10.0 | 0.00 | 0.00 | 0.00 | 83 | 1011.8 |
| 20260505080649 | 51 | 41 | 5.0 | 11.0 | 0.00 | 0.00 | 0.00 | 83 | 1011.8 |
| 20260505080149 | 52 | 111 | 4.0 | 11.0 | 0.00 | 0.00 | 0.00 | 83 | 1011.7 |
| 20260505075649 | 52 | 42 | 4.0 | 9.0 | 0.00 | 0.00 | 0.00 | 83 | 1011.7 |
| 20260505075144 | 52 | 70 | 4.0 | 10.0 | 0.00 | 0.00 | 0.00 | 84 | 1011.7 |
| 20260505074644 | 51 | 75 | 4.0 | 10.0 | 0.00 | 0.00 | 0.00 | 85 | 1011.8 |
| 20260505074143 | 51 | 68 | 4.0 | 8.0 | 0.00 | 0.00 | 0.00 | 84 | 1011.7 |
| 20260505073644 | 51 | 66 | 4.0 | 8.0 | 0.00 | 0.00 | 0.00 | 84 | 1011.7 |
| 20260505073145 | 51 | 77 | 4.0 | 8.0 | 0.00 | 0.00 | 0.00 | 84 | 1011.9 |
| 20260505072644 | 51 | 35 | 4.0 | 8.0 | 0.00 | 0.00 | 0.00 | 85 | 1011.8 |
| 20260505072139 | 51 | 46 | 3.0 | 7.0 | 0.00 | 0.00 | 0.00 | 85 | 1011.9 |
| 20260505071140 | 51 | 82 | 5.0 | 8.0 | 0.00 | 0.00 | 0.00 | 84 | 1011.9 |
| 20260505070640 | 51 | 60 | 4.0 | 8.0 | 0.00 | 0.00 | 0.00 | 84 | 1011.8 |
| 20260505070141 | 51 | 59 | 4.0 | 8.0 | 0.00 | 0.00 | 0.00 | 84 | 1011.8 |
| 20260505065138 | 51 | 345 | 4.0 | 9.0 | 0.00 | 0.00 | 0.00 | 84 | 1011.7 |
| 20260505064138 | 51 | 46 | 4.0 | 10.0 | 0.00 | 0.00 | 0.00 | 85 | 1011.7 |
| 20260505063137 | 51 | 57 | 4.0 | 10.0 | 0.00 | 0.00 | 0.00 | 85 | 1011.7 |
| 20260505062134 | 51 | 75 | 3.0 | 8.0 | 0.00 | 0.00 | 0.00 | 85 | 1011.8 |
| 20260505061132 | 51 | 46 | 3.0 | 8.0 | 0.00 | 0.00 | 0.00 | 85 | 1011.9 |
| 20260505060632 | 51 | 61 | 3.0 | 8.0 | 0.00 | 0.00 | 0.00 | 85 | 1012.0 |
| 20260505055623 | 50 | 72 | 3.0 | 6.0 | 0.00 | 0.00 | 0.00 | 86 | 1012.1 |
| 20260505055122 | 50 | 60 | 3.0 | 6.0 | 0.00 | 0.00 | 0.00 | 86 | 1012.0 |
| 20260505054621 | 50 | 58 | 2.0 | 6.0 | 0.00 | 0.00 | 0.00 | 86 | 1012.0 |
| 20260505054119 | 50 | 67 | 3.0 | 6.0 | 0.00 | 0.00 | 0.00 | 87 | 1012.0 |
| 20260505053621 | 50 | 68 | 3.0 | 6.0 | 0.00 | 0.00 | 0.00 | 87 | 1012.0 |
| 20260505053121 | 50 | 63 | 2.0 | 6.0 | 0.00 | 0.00 | 0.00 | 87 | 1012.0 |
| 20260505052620 | 50 | 62 | 3.0 | 6.0 | 0.00 | 0.00 | 0.00 | 88 | 1012.0 |
| 20260505052114 | 49 | 27 | 3.0 | 8.0 | 0.00 | 0.00 | 0.00 | 88 | 1012.0 |
| 20260505051613 | 49 | 50 | 2.0 | 8.0 | 0.00 | 0.00 | 0.00 | 89 | 1012.0 |
| 20260505051113 | 49 | 74 | 3.0 | 7.0 | 0.00 | 0.00 | 0.00 | 89 | 1012.0 |
| 20260505050613 | 49 | 30 | 2.0 | 7.0 | 0.00 | 0.00 | 0.00 | 89 | 1012.0 |
| 20260505041610 | 49 | 72 | 3.0 | 6.0 | 0.00 | 0.00 | 0.00 | 89 | 1012.0 |
| 20260505040606 | 49 | 60 | 3.0 | 7.0 | 0.00 | 0.00 | 0.00 | 89 | 1012.1 |
| 20260505040106 | 49 | 53 | 3.0 | 7.0 | 0.00 | 0.00 | 0.00 | 89 | 1012.1 |
| 20260505035105 | 49 | 51 | 2.0 | 5.0 | 0.00 | 0.00 | 0.00 | 90 | 1012.1 |
| 20260505034604 | 49 | 58 | 3.0 | 5.0 | 0.00 | 0.00 | 0.00 | 89 | 1012.0 |
| 20260505034057 | 49 | 66 | 3.0 | 6.0 | 0.00 | 0.00 | 0.00 | 89 | 1012.1 |
| 20260505033558 | 49 | 53 | 3.0 | 7.0 | 0.00 | 0.00 | 0.00 | 89 | 1012.1 |
| 20260505033058 | 49 | 86 | 3.0 | 7.0 | 0.00 | 0.00 | 0.00 | 89 | 1012.1 |
| 20260505032558 | 49 | 62 | 2.0 | 2.0 | 0.00 | 0.00 | 0.00 | 90 | 1012.1 |
| 20260505030854 | 50 | 332 | 3.0 | 8.0 | 0.00 | 0.00 | 0.00 | 89 | 1012.4 |
| 20260505030354 | 50 | 71 | 4.0 | 8.0 | 0.00 | 0.00 | 0.00 | 89 | 1012.3 |
| 20260505025854 | 50 | 56 | 3.0 | 7.0 | 0.00 | 0.00 | 0.00 | 89 | 1012.4 |
| 20260505025348 | 50 | 86 | 3.0 | 8.0 | 0.00 | 0.00 | 0.00 | 89 | 1012.4 |
| 20260505024848 | 50 | 68 | 3.0 | 8.0 | 0.00 | 0.00 | 0.00 | 89 | 1012.5 |
| 20260505024348 | 50 | 19 | 4.0 | 7.0 | 0.00 | 0.00 | 0.00 | 89 | 1012.6 |
| 20260505023848 | 50 | 70 | 4.0 | 8.0 | 0.00 | 0.00 | 0.00 | 89 | 1012.6 |
| 20260505023348 | 51 | 44 | 3.0 | 8.0 | 0.00 | 0.00 | 0.00 | 89 | 1012.6 |
| 20260505022848 | 51 | 53 | 2.0 | 6.0 | 0.00 | 0.00 | 0.00 | 89 | 1012.6 |
| 20260505022341 | 51 | 51 | 2.0 | 5.0 | 0.00 | 0.00 | 0.00 | 89 | 1012.5 |
| 20260505021841 | 51 | 68 | 3.0 | 7.0 | 0.00 | 0.00 | 0.00 | 89 | 1012.6 |
| 20260505021341 | 51 | 60 | 3.0 | 7.0 | 0.00 | 0.00 | 0.00 | 89 | 1012.6 |
| 20260505020843 | 51 | 37 | 3.0 | 7.0 | 0.00 | 0.00 | 0.00 | 89 | 1012.6 |
| 20260505020342 | 51 | 62 | 3.0 | 10.0 | 0.00 | 0.00 | 0.00 | 89 | 1012.6 |
| 20260505015842 | 51 | 44 | 3.0 | 10.0 | 0.00 | 0.00 | 0.00 | 89 | 1012.6 |
| 20260505015338 | 51 | 77 | 3.0 | 8.0 | 0.00 | 0.00 | 0.00 | 89 | 1012.6 |
| 20260505014839 | 51 | 61 | 3.0 | 8.0 | 0.00 | 0.00 | 0.00 | 89 | 1012.6 |
| 20260505013836 | 51 | 11 | 3.0 | 8.0 | 0.00 | 0.00 | 0.00 | 90 | 1012.7 |
| 20260505012836 | 51 | 56 | 3.0 | 8.0 | 0.00 | 0.00 | 0.00 | 90 | 1012.7 |
| 20260505011830 | 51 | 58 | 3.0 | 5.0 | 0.00 | 0.00 | 0.00 | 90 | 1012.8 |
| 20260505011331 | 51 | 323 | 4.0 | 7.0 | 0.00 | 0.00 | 0.00 | 90 | 1012.9 |
| 20260505010831 | 51 | 53 | 4.0 | 7.0 | 0.00 | 0.00 | 0.00 | 90 | 1013.0 |
| 20260505010330 | 51 | 54 | 3.0 | 9.0 | 0.00 | 0.00 | 0.00 | 89 | 1013.0 |
| 20260505005323 | 51 | 49 | 4.0 | 9.0 | 0.00 | 0.00 | 0.00 | 89 | 1013.1 |
| 20260505004824 | 51 | 79 | 4.0 | 9.0 | 0.00 | 0.00 | 0.00 | 89 | 1013.1 |
| 20260505003824 | 51 | 69 | 6.0 | 9.0 | 0.00 | 0.00 | 0.00 | 90 | 1013.1 |
| 20260505002824 | 52 | 51 | 4.0 | 8.0 | 0.00 | 0.00 | 0.00 | 90 | 1013.0 |
| 20260505002320 | 52 | 65 | 4.0 | 9.0 | 0.00 | 0.00 | 0.00 | 90 | 1013.2 |
| 20260505001821 | 52 | 72 | 5.0 | 9.0 | 0.00 | 0.00 | 0.00 | 90 | 1013.0 |
| 20260505001321 | 52 | 68 | 5.0 | 9.0 | 0.00 | 0.00 | 0.00 | 90 | 1013.0 |
| 20260505000821 | 52 | 52 | 4.0 | 8.0 | 0.00 | 0.00 | 0.00 | 90 | 1013.1 |
| 20260505000321 | 51 | 52 | 4.0 | 8.0 | 0.00 | 0.00 | 0.00 | 90 | 1013.2 |
| 20260504235820 | 52 | 81 | 5.0 | 9.0 | 0.00 | 0.00 | 0.00 | 91 | 1013.4 |
| 20260504235322 | 51 | 47 | 5.0 | 9.0 | 0.00 | 0.00 | 0.00 | 91 | 1013.3 |
| 20260504234819 | 51 | 52 | 5.0 | 10.0 | 0.00 | 0.00 | 0.00 | 91 | 1013.3 |
| 20260504233820 | 51 | 58 | 5.0 | 8.0 | 0.00 | 0.00 | 0.00 | 91 | 1013.4 |
| 20260504233318 | 51 | 47 | 4.0 | 9.0 | 0.00 | 0.00 | 0.00 | 91 | 1013.4 |
| 20260504232818 | 51 | 47 | 4.0 | 9.0 | 0.00 | 0.00 | 0.00 | 91 | 1013.4 |
| 20260504232318 | 51 | 65 | 4.0 | 10.0 | 0.00 | 0.00 | 0.00 | 91 | 1013.4 |
| 20260504231310 | 51 | 71 | 5.0 | 10.0 | 0.00 | 0.00 | 0.00 | 91 | 1013.5 |
| 20260504230811 | 51 | 53 | 5.0 | 10.0 | 0.00 | 0.00 | 0.00 | 91 | 1013.5 |
| 20260504230311 | 51 | 30 | 5.0 | 9.0 | 0.00 | 0.00 | 0.00 | 92 | 1013.4 |
| 20260504225813 | 51 | 46 | 4.0 | 10.0 | 0.00 | 0.00 | 0.00 | 92 | 1013.4 |
| 20260504225312 | 51 | 57 | 5.0 | 10.0 | 0.00 | 0.00 | 0.00 | 92 | 1013.5 |
| 20260504224813 | 52 | 65 | 5.0 | 10.0 | 0.00 | 0.00 | 0.00 | 92 | 1013.4 |
| 20260504224312 | 52 | 30 | 5.0 | 10.0 | 0.00 | 0.00 | 0.00 | 92 | 1013.4 |